Regional Weather Roundup
Issued by NWS

Home | Current Version | Previous Version | Graphics & Text | Print | Product List | Glossary On
Versions: 1 2 3 4 5 6 7 8 9 10 11 12 13 14 15 16 17 18 19 20 21 22 23 24 25 26 27 28 29 30 31 32 33 34 35 36 37 38 39 40 41 42 43 44 45 46 47 48 49 50
423
ASUS44 KJAN 221503
RWRMS

MISSISSIPPI HOURLY WEATHER ROUNDUP
NATIONAL WEATHER SERVICE JACKSON MS
1000 AM CDT FRI AUG 22 2014

NOTE: "FAIR: INDICATES FEW OR NO CLOUDS BELOW 12,000 FEET WITH NO
SIGNIFICANT WEATHER AND/OR OBSTRUCTIONS TO VISIBILITY.

MSZ001>002-007>008-010>013-018>021-025>028-034>036-221600-
NORTHWEST MISSISSIPPI

CITY           SKY/WX    TMP DP  RH WIND       PRES   REMARKS
CLARKSDALE     FAIR      82  75  78 CALM      30.11S
CLEVELAND      FAIR      84  76  78 W6        30.10S HX  93
GREENWOOD      SUNNY     83  74  74 VRB3      30.12R
GREENVILLE     SUNNY     85  73  67 W10       30.10S HX  91
GRENADA        FAIR      82  73  74 W5        30.12S
OLIVE BRANCH   MOSUNNY   84  79  84 W7        30.10F HX  96
OXFORD         FAIR      82  72  69 W5        30.14S
TUNICA         SUNNY     84  73  70 SW8       30.11R HX  91
$$

MSZ003>006-009-014>017-022>024-029>033-037>039-221600-
NORTHEAST MISSISSIPPI

CITY           SKY/WX    TMP DP  RH WIND       PRES   REMARKS
BELMONT        FAIR      83  74  75 W5        30.14S HX  90
COLUMBUS AFB   SUNNY     86  72  62 NW5       30.13S HX  92
CORINTH        FAIR      86  73  66 W7        30.11S HX  93
GOLDN TRIANGLE SUNNY     90  72  55 NW5       30.13F HX  96
STARKVILLE     FAIR      86  72  62 NW3       30.13S HX  92
TUPELO         SUNNY     87  72  60 VRB5      30.12S HX  93
$$

MSZ040-058-221600-
CENTRAL MISSISSIPPI

CITY           SKY/WX    TMP DP  RH WIND       PRES   REMARKS
JACKSON INTL   MOSUNNY   85  75  72 NW6       30.13S HX  93
JACKSON HAWKNS SUNNY     85  74  69 W6        30.14S HX  92
MERIDIAN KEY   SUNNY     87  71  58 N7        30.14R HX  93
MERIDIAN NAS   MOSUNNY   86  71  60 NW6       30.14S HX  91
RAYMOND        FAIR      82  77  83 NW5       30.13S HAZE    HX  91
VICKSBURG      SUNNY     84  76  76 VRB6      30.12S HX  93
$$

MSZ059>079-221600-
SOUTH MISSISSIPPI

CITY           SKY/WX    TMP DP  RH WIND       PRES   REMARKS
BROOKHAVEN     FAIR      82  75  78 W5        30.16S HAZE
COLUMBIA       FAIR      84  77  79 MISG      30.12S HX  94
HATTIESBURG    SUNNY     86  74  67 NW7       30.14S HX  94
MCCOMB         SUNNY     85  74  69 NW8       30.14S HX  92
NATCHEZ        PTSUNNY   82  75  78 W6        30.14S
PINE BELT      SUNNY     86  73  66 NW7       30.15S HX  93
$$

MSZ080>082-221600-
COASTAL MISSISSIPPI

CITY           SKY/WX    TMP DP  RH WIND       PRES   REMARKS
BAY ST LOUIS   SUNNY    N/A N/A N/A VRB6      30.12R
BILOXI         SUNNY     89  73  60 VRB2      30.11S HX  96
PASCAGOULA     SUNNY     88  75  65 N7        30.11S HX  97
GULFPORT       SUNNY     89  73  59 N6        30.11R HX  97
$$



USA.gov is the U.S. government's official web portal to all federal, state and local government web resources and services.